• In Portugal
  • List of Countries
  • For 7 days
  • Water Temperature
  • Satellite Maps
  • Weather Map
  • Weather Widgets
  • user-avatar
    Login

    Hourly Weather Setserleg

    Today, 24 February, Saturday

    Time Temperature Precipitation Wind Pressure Humidity
    00:00 -16°C° 0 mm 2 mps 608 mmHg 73%
    01:00 -16°C° 0 mm 2 mps 608 mmHg 73%
    02:00 -16°C° 0 mm 2 mps 608 mmHg 72%
    03:00 -16°C° 0 mm 2 mps 608 mmHg 71%
    04:00 -17°C° 0 mm 2 mps 608 mmHg 70%
    05:00 -17°C° 0 mm 2 mps 608 mmHg 70%
    06:00 -17°C° 0 mm 2 mps 608 mmHg 69%
    07:00 -17°C° 0 mm 2 mps 609 mmHg 68%
    08:00 -15°C° 0 mm 2 mps 609 mmHg 68%
    09:00 -13°C° 0 mm 2 mps 610 mmHg 67%
    10:00 -12°C° 0 mm 2 mps 610 mmHg 66%
    11:00 -9°C° 0 mm 2 mps 610 mmHg 62%
    12:00 -7°C° 0 mm 1 mps 610 mmHg 57%
    13:00 -4°C° 0 mm 1 mps 610 mmHg 52%
    14:00 -4°C° 0 mm 1 mps 609 mmHg 57%
    15:00 -4°C° 0 mm 1 mps 609 mmHg 62%
    16:00 -6°C° 0 mm 1 mps 609 mmHg 67%
    17:00 -7°C° 0 mm 1 mps 608 mmHg 67%
    18:00 -9°C° 0 mm 1 mps 608 mmHg 67%
    19:00 -12°C° 0 mm 2 mps 607 mmHg 67%
    20:00 -12°C° 0 mm 2 mps 607 mmHg 66%
    21:00 -13°C° 0 mm 2 mps 607 mmHg 65%
    22:00 -13°C° 0 mm 2 mps 607 mmHg 64%
    23:00 -13°C° 0 mm 2 mps 606 mmHg 63%

    Tomorrow, 25 February, Sunday

    Time Temperature Precipitation Wind Pressure Humidity
    00:00 -13°C° 0 mm 2 mps 606 mmHg 62%
    01:00 -14°C° 0 mm 2 mps 606 mmHg 61%
    02:00 -13°C° 0 mm 2 mps 606 mmHg 61%
    03:00 -13°C° 0 mm 2 mps 606 mmHg 61%
    04:00 -13°C° 0 mm 2 mps 606 mmHg 61%
    05:00 -13°C° 0 mm 2 mps 605 mmHg 61%
    06:00 -13°C° 0 mm 2 mps 605 mmHg 60%
    07:00 -13°C° 0 mm 2 mps 605 mmHg 60%
    08:00 -10°C° 0 mm 2 mps 606 mmHg 62%
    09:00 -9°C° 0 mm 2 mps 607 mmHg 63%
    10:00 -8°C° 0 mm 2 mps 607 mmHg 64%
    11:00 -7°C° 0 mm 3 mps 607 mmHg 63%
    12:00 -7°C° 0 mm 4 mps 607 mmHg 61%
    13:00 -5°C° 0 mm 5 mps 607 mmHg 59%
    14:00 -6°C° 0 mm 5 mps 607 mmHg 62%
    15:00 -5°C° 0 mm 4 mps 607 mmHg 65%
    16:00 -7°C° 0 mm 4 mps 607 mmHg 68%
    17:00 -7°C° 0 mm 3 mps 607 mmHg 70%
    18:00 -9°C° 0 mm 3 mps 607 mmHg 73%
    19:00 -10°C° 0 mm 2 mps 607 mmHg 76%
    20:00 -12°C° 0 mm 2 mps 608 mmHg 77%
    21:00 -12°C° 0 mm 2 mps 608 mmHg 78%
    22:00 -13°C° 0 mm 2 mps 608 mmHg 79%
    23:00 -14°C° 0 mm 2 mps 609 mmHg 79%

    Day after tomorrow, 26 February, Monday

    Time Temperature Precipitation Wind Pressure Humidity
    00:00 -12°C° 0 mm 1 mps 609 mmHg 80%
    01:00 -13°C° 0 mm 1 mps 609 mmHg 80%
    02:00 -13°C° 0 mm 1 mps 609 mmHg 80%
    03:00 -13°C° 0 mm 1 mps 609 mmHg 80%
    04:00 -14°C° 0 mm 1 mps 609 mmHg 81%
    05:00 -14°C° 0 mm 1 mps 609 mmHg 80%
    06:00 -14°C° 0 mm 1 mps 609 mmHg 80%
    07:00 -14°C° 0 mm 1 mps 609 mmHg 79%
    08:00 -13°C° 0 mm 1 mps 610 mmHg 77%
    09:00 -11°C° 0 mm 1 mps 610 mmHg 74%
    10:00 -10°C° 0 mm 1 mps 611 mmHg 71%
    11:00 -9°C° 0 mm 1 mps 610 mmHg 68%
    12:00 -8°C° 0 mm 1 mps 610 mmHg 64%
    13:00 -6°C° 0 mm 1 mps 610 mmHg 61%
    14:00 -6°C° 0 mm 1 mps 609 mmHg 65%
    15:00 -6°C° 0 mm 1 mps 609 mmHg 69%
    16:00 -6°C° 0 mm 1 mps 608 mmHg 73%
    17:00 -8°C° 0 mm 1 mps 608 mmHg 75%
    18:00 -9°C° 0 mm 1 mps 608 mmHg 77%
    19:00 -11°C° 0 mm 1 mps 607 mmHg 78%
    20:00 -13°C° 0 mm 2 mps 607 mmHg 77%
    21:00 -13°C° 0 mm 2 mps 607 mmHg 75%
    22:00 -14°C° 0 mm 2 mps 607 mmHg 73%
    23:00 -14°C° 0 mm 2 mps 607 mmHg 72%

    27 February, Tuesday

    Time Temperature Precipitation Wind Pressure Humidity
    00:00 -14°C° 0 mm 2 mps 606 mmHg 71%
    01:00 -14°C° 0 mm 2 mps 606 mmHg 70%
    02:00 -14°C° 0 mm 2 mps 606 mmHg 69%
    03:00 -15°C° 0 mm 2 mps 605 mmHg 68%
    04:00 -15°C° 0 mm 2 mps 605 mmHg 68%
    05:00 -15°C° 0 mm 2 mps 605 mmHg 67%
    06:00 -15°C° 0 mm 2 mps 604 mmHg 67%
    07:00 -15°C° 0 mm 2 mps 604 mmHg 67%
    08:00 -13°C° 0 mm 2 mps 604 mmHg 66%
    09:00 -10°C° 0 mm 1 mps 604 mmHg 66%
    10:00 -8°C° 0 mm 1 mps 604 mmHg 65%
    11:00 -9°C° 0.1 mm 2 mps 603 mmHg 67%
    12:00 -8°C° 0.1 mm 2 mps 603 mmHg 69%
    13:00 -8°C° 0.1 mm 3 mps 602 mmHg 70%
    14:00 -9°C° 0.2 mm 3 mps 602 mmHg 76%
    15:00 -9°C° 0.2 mm 3 mps 601 mmHg 83%
    16:00 -10°C° 0.2 mm 3 mps 601 mmHg 89%
    17:00 -10°C° 0.2 mm 2 mps 601 mmHg 91%
    18:00 -12°C° 0.2 mm 2 mps 601 mmHg 92%
    19:00 -11°C° 0.2 mm 1 mps 602 mmHg 94%
    20:00 -13°C° 0.1 mm 2 mps 602 mmHg 91%
    21:00 -14°C° 0.1 mm 2 mps 602 mmHg 87%
    22:00 -14°C° 0.1 mm 2 mps 602 mmHg 84%
    23:00 -16°C° 0 mm 3 mps 602 mmHg 83%

    28 February, Wednesday

    Time Temperature Precipitation Wind Pressure Humidity
    00:00 -17°C° 0 mm 3 mps 602 mmHg 81%
    01:00 -17°C° 0 mm 3 mps 602 mmHg 80%
    02:00 -18°C° 0 mm 3 mps 602 mmHg 80%
    03:00 -19°C° 0 mm 3 mps 602 mmHg 79%
    04:00 -21°C° 0 mm 3 mps 602 mmHg 79%
    05:00 -22°C° 0 mm 3 mps 602 mmHg 79%
    06:00 -23°C° 0 mm 3 mps 602 mmHg 78%
    07:00 -21°C° 0 mm 2 mps 603 mmHg 78%
    08:00 -20°C° 0 mm 2 mps 603 mmHg 74%
    09:00 -18°C° 0 mm 2 mps 604 mmHg 69%
    10:00 -17°C° 0 mm 2 mps 604 mmHg 65%
    11:00 -16°C° 0 mm 2 mps 604 mmHg 59%
    12:00 -15°C° 0 mm 2 mps 604 mmHg 52%
    13:00 -13°C° 0 mm 2 mps 603 mmHg 45%
    14:00 -13°C° 0 mm 2 mps 603 mmHg 51%
    15:00 -13°C° 0 mm 2 mps 602 mmHg 56%
    16:00 -13°C° 0 mm 2 mps 602 mmHg 61%
    17:00 -12°C° 0 mm 1 mps 602 mmHg 65%
    18:00 -14°C° 0 mm 1 mps 601 mmHg 68%
    19:00 -15°C° 0 mm 1 mps 601 mmHg 72%
    20:00 -16°C° 0 mm 1 mps 601 mmHg 73%
    21:00 -16°C° 0 mm 1 mps 601 mmHg 73%
    22:00 -17°C° 0 mm 0 mps 601 mmHg 74%
    23:00 -17°C° 0 mm 1 mps 601 mmHg 75%

    1 March, Thursday

    Time Temperature Precipitation Wind Pressure Humidity
    00:00 -17°C° 0 mm 1 mps 600 mmHg 76%
    01:00 -18°C° 0 mm 1 mps 600 mmHg 76%
    02:00 -18°C° 0 mm 1 mps 600 mmHg 77%
    03:00 -19°C° 0 mm 1 mps 600 mmHg 77%
    04:00 -19°C° 0 mm 1 mps 600 mmHg 78%
    05:00 -19°C° 0 mm 1 mps 600 mmHg 79%
    06:00 -20°C° 0 mm 1 mps 600 mmHg 79%
    07:00 -20°C° 0 mm 1 mps 600 mmHg 80%
    08:00 -19°C° 0 mm 1 mps 601 mmHg 80%
    09:00 -18°C° 0 mm 1 mps 601 mmHg 79%
    10:00 -16°C° 0 mm 1 mps 602 mmHg 78%
    11:00 -18°C° 0.1 mm 2 mps 601 mmHg 77%
    12:00 -17°C° 0.1 mm 2 mps 601 mmHg 76%
    13:00 -18°C° 0.1 mm 3 mps 601 mmHg 75%
    14:00 -18°C° 0.1 mm 3 mps 601 mmHg 76%
    15:00 -19°C° 0.1 mm 3 mps 601 mmHg 77%
    16:00 -19°C° 0.1 mm 3 mps 601 mmHg 78%
    17:00 -21°C° 0.1 mm 3 mps 602 mmHg 79%
    18:00 -23°C° 0.1 mm 4 mps 602 mmHg 81%
    19:00 -24°C° 0.1 mm 4 mps 603 mmHg 82%
    20:00 -26°C° 0 mm 5 mps 603 mmHg 80%
    21:00 -28°C° 0 mm 5 mps 603 mmHg 78%
    22:00 -29°C° 0 mm 5 mps 603 mmHg 76%
    23:00 -31°C° 0 mm 5 mps 604 mmHg 76%
    Show more